Погода в Мечетинской

Россия / Ростовская область     46°46′35″N   40°27′34″E
темп.,
°C
ветер,
м/с
пор.,
м/с
влажн.,
%
обл.,
%
осадки,
мм/ч
давл.,
гПа
погр.,
м
22 апреля, чт
чт2200:00+9юз118289 0.0 102110
03:00+10зсз117899 0.0 102112
06:00+10с228099 0.0 102234
09:00+12в1172100 0.0 1023364
12:00+16ю1262100 0.4 10221028
15:00+16ююз3361100 1.5 10221165
18:00+14ю3479100 2.9 1022150
21:00+11юв3488100 5.5 1023101
23 апреля, пт
пт2300:00+11в228926 0.5 102349
03:00+9ю22915 0.5 102314
06:00+8з23920 0.0 102468
09:00+13зюз45695 0.0 1024639
12:00+16зюз565826 0.1 10231637
15:00+16зюз4659100 0.2 10211027
18:00+15юз3567100 0.1 1020152
21:00+12зсз1174100 0.1 102010
24 апреля, сб
сб2400:00+11з2276100 0.0 101924
03:00+10зюз228299 0.6 101842
06:00+9ююз3118670 0.1 1018305
09:00+13зюз610655 0.1 1018939
12:00+15зюз7961100 0.3 10181499
15:00+14з7106968 1.0 10181352
18:00+13з58610 0.2 1018585
21:00+8з3875100 0.2 1021154
25 апреля, вс
вс2500:00+7з4980100 0.0 1021223
03:00+6зсз3783100 0.0 1022191
06:00+5с268886 0.0 1022225
09:00+8ссв335654 0.0 1023706
12:00+11с2247100 0.0 10221269
15:00+12св2146100 0.0 10201403
18:00+10ссв3564100 0.0 1020193
21:00+8св3665100 0.1 1020264
26 апреля, пн
пн2600:00+7всв4770100 0.1 1019353
03:00+6в3693100 2.1 1018248
06:00+6всв3596100 3.5 1018231
09:00+7всв2394100 4.7 1018301
12:00+7св2291100 0.1 1018342
15:00+11ююв127461 0.3 1017841
18:00+11ююз2273100 0.1 1017157
21:00+7ююз3488100 0.1 101860